Weather History for PANC - March, 2013

Change the Weather History Date:

Saturday, March 23, 2013

  Actual Average Record
Temperature  
Mean Temperature 28 °F 28 °F  
Max Temperature 31 °F 36 °F 46 °F (1974)
Min Temperature 25 °F 21 °F -8 °F (1962)
Degree Days  
Heating Degree Days 37    
Month to date heating degree days 902  
Since 1 July heating degree days 8347  
Cooling Degree Days 0    
Month to date cooling degree days 0  
Year to date cooling degree days 0  
Moisture  
Dew Point 22 °F    
Average Humidity 76    
Maximum Humidity 92    
Minimum Humidity 59    
Precipitation  
Precipitation 0.02 in 0.02 in 0.13 in (1966)
Month to date precipitation 0.37 0.46  
Year to date precipitation 2.82 1.91  
Snow  
Snow 0.70 in 0.30 in 1.50 in (1993)
Month to date snowfall 7.4 7.7  
Since 1 July snowfall 63.5 68.0  
Snow Depth 19.00 in    
Sea Level Pressure  
Sea Level Pressure 29.81 in    
Wind  
Wind Speed 8 mph (South)    
Max Wind Speed 10 mph    
Max Gust Speed 18 mph    
Visibility 7 miles    
Events Snow    
T = Trace of Precipitation, MM = Missing Value Source: NWS Daily Summary

Daily Weather History Graph

Daily Weather History Graph

Search for Another Location

Airport or City:

Trip Planner

Search our weather history database for the weather conditions in past years. The results will help you decide how hot, cold, wet, or windy it might be!

Date:

Astronomy

Mar. 23, 2013 Rise Set
Actual Time 7:50 AM AKDT 8:24 PM AKDT
Civil Twilight 7:07 AM AKDT 9:07 PM AKDT
Nautical Twilight 6:14 AM AKDT 10:00 PM AKDT
Astronomical Twilight 5:15 AM AKDT 11:00 PM AKDT
Moon 4:13 PM AKDT (3/23) 6:25 AM AKDT (3/23)
Length of Visible Light 14h 00m
Length of Day
12h 33m
Waxing Gibbous, 86% of the Moon is Illuminated
Mar 23
Waxing Gibbous
Mar 27
Full
Apr 2
Last Quarter
Apr 10
New
Apr 18
First Quarter

Hourly Weather History & Observations

Time (AKDT) Temp. Windchill Dew Point Humidity Pressure Visibility Wind Dir Wind Speed Gust Speed Precip Events Conditions
12:07 AM 30.2 °F 22.6 °F 28.4 °F 93% 29.80 in 1.2 mi SSW 8.1 mph - 0.02 in Snow Light Snow
12:41 AM 30.2 °F 24.3 °F 26.6 °F 86% 29.80 in 1.0 mi SW 5.8 mph - 0.06 in Snow Light Snow
12:49 AM 30.2 °F 24.3 °F 26.6 °F 86% 29.80 in 0.8 mi SW 5.8 mph - 0.07 in Snow Light Snow
12:53 AM 30.0 °F 24.1 °F 27.0 °F 88% 29.81 in 0.8 mi SW 5.8 mph - 0.08 in Snow Light Snow
12:59 AM 30.2 °F 24.3 °F 26.6 °F 86% 29.80 in 1.0 mi SW 5.8 mph - 0.01 in Snow Light Snow
1:29 AM 30.2 °F 26.7 °F 28.4 °F 93% 29.79 in 1.5 mi South 3.5 mph - 0.02 in Snow Light Snow
1:47 AM 30.2 °F 24.3 °F 28.4 °F 93% 29.79 in 2.0 mi South 5.8 mph - 0.02 in Snow Light Snow
1:50 AM 30.2 °F 24.3 °F 28.4 °F 93% 29.79 in 4.0 mi South 5.8 mph - 0.02 in Snow Light Snow
1:53 AM 30.9 °F 25.2 °F 28.0 °F 89% 29.79 in 4.0 mi South 5.8 mph - 0.02 in Snow Light Snow
2:11 AM 30.2 °F 24.3 °F 28.4 °F 93% 29.78 in 7.0 mi South 5.8 mph - 0.00 in   Overcast
2:49 AM 32.0 °F 24.2 °F 28.4 °F 87% 29.78 in 9.0 mi SSE 9.2 mph 17.3 mph 0.00 in Snow Light Snow
2:53 AM 32.0 °F 25.6 °F 28.0 °F 85% 29.78 in 7.0 mi SSE 6.9 mph - 0.00 in Snow Light Snow
3:53 AM 32.0 °F 24.2 °F 25.0 °F 75% 29.78 in 9.0 mi South 9.2 mph - 0.00 in Snow Light Snow
4:05 AM 33.8 °F 27.0 °F 26.6 °F 75% 29.77 in 9.0 mi South 8.1 mph 18.4 mph 0.00 in Snow Light Snow
4:53 AM 32.0 °F 23.6 °F 26.1 °F 79% 29.77 in 7.0 mi South 10.4 mph - 0.00 in   Overcast
5:53 AM 32.0 °F 23.0 °F 24.1 °F 73% 29.75 in 9.0 mi South 11.5 mph - 0.00 in Snow Light Snow
6:53 AM 32.0 °F 23.6 °F 21.9 °F 66% 29.76 in 9.0 mi SSW 10.4 mph - 0.00 in Snow Light Snow
7:53 AM 32.0 °F 23.6 °F 19.9 °F 61% 29.77 in 9.0 mi SSW 10.4 mph - 0.00 in   Overcast
8:41 AM 32.0 °F 23.6 °F 19.4 °F 60% 29.76 in 10.0 mi SSW 10.4 mph 17.3 mph N/A   Overcast
8:53 AM 32.0 °F 23.6 °F 19.9 °F 61% 29.78 in 10.0 mi SSW 10.4 mph 18.4 mph N/A   Mostly Cloudy
9:53 AM 32.0 °F 24.2 °F 19.9 °F 61% 29.78 in 10.0 mi South 9.2 mph 18.4 mph 0.00 in Snow Light Snow
10:28 AM 24.8 °F 12.9 °F 19.4 °F 80% 29.80 in 10.0 mi NNW 13.8 mph - 0.00 in   Overcast
10:53 AM 21.9 °F 12.5 °F 18.0 °F 85% 29.82 in 10.0 mi NNW 8.1 mph - 0.00 in   Overcast
11:53 AM 25.0 °F 19.3 °F 19.9 °F 81% 29.83 in 10.0 mi NNW 4.6 mph - 0.00 in Snow Light Snow
12:53 PM 27.0 °F 20.5 °F 19.9 °F 75% 29.85 in 5.0 mi NNE 5.8 mph - 0.00 in Snow Light Snow
1:13 PM 26.6 °F 20.0 °F 19.4 °F 74% 29.84 in 2.5 mi NNE 5.8 mph - 0.00 in Snow Light Snow
1:32 PM 26.6 °F 20.0 °F 19.4 °F 74% 29.84 in 3.0 mi NE 5.8 mph - 0.00 in Snow Light Snow
1:53 PM 28.0 °F 20.8 °F 19.9 °F 72% 29.85 in 7.0 mi North 6.9 mph - 0.00 in   Mostly Cloudy
2:53 PM 28.0 °F 20.8 °F 19.0 °F 69% 29.85 in 10.0 mi NE 6.9 mph - N/A   Overcast
3:53 PM 28.9 °F 21.1 °F 19.9 °F 69% 29.85 in 10.0 mi NE 8.1 mph - N/A   Mostly Cloudy
4:53 PM 28.9 °F 20.4 °F 21.0 °F 72% 29.85 in 10.0 mi NE 9.2 mph - N/A   Mostly Cloudy
5:53 PM 28.9 °F 21.1 °F 19.9 °F 69% 29.84 in 10.0 mi NNE 8.1 mph - N/A   Mostly Cloudy
6:53 PM 28.9 °F 21.9 °F 21.0 °F 72% 29.84 in 10.0 mi NNE 6.9 mph - N/A   Mostly Cloudy
7:53 PM 28.9 °F 21.1 °F 19.0 °F 67% 29.84 in 10.0 mi North 8.1 mph - N/A   Mostly Cloudy
8:53 PM 28.0 °F 18.6 °F 16.0 °F 61% 29.85 in 10.0 mi North 10.4 mph - N/A   Mostly Cloudy
9:53 PM 27.0 °F 19.5 °F 17.1 °F 66% 29.85 in 10.0 mi North 6.9 mph - N/A   Mostly Cloudy
10:53 PM 27.0 °F 19.5 °F 12.0 °F 53% 29.86 in 10.0 mi North 6.9 mph - N/A   Mostly Cloudy
11:53 PM 25.0 °F 16.3 °F 14.0 °F 63% 29.86 in 10.0 mi North 8.1 mph - N/A   Overcast